Regional Weather Roundup
Issued by NWS

Home | Current Version | Previous Version | Graphics & Text | Print | Product List | Glossary On
Versions: 1 2 3 4 5 6 7 8 9 10 11 12 13 14 15 16 17 18 19 20 21 22 23 24 25 26 27 28 29 30 31 32 33 34 35 36 37 38 39 40 41 42 43 44 45 46 47 48 49 50
000
ASUS45 KABQ 092301
RWRNM
NEW MEXICO REGIONAL WEATHER ROUNDUP
NATIONAL WEATHER SERVICE ALBUQUERQUE NM
400 PM MST TUE FEB 09 2016

NOTE: "FAIR" MEANS FEW OR NO CLOUDS BELOW 12,000 FEET AGL WITH NO
       SIGNIFICANT WEATHER OR OBSTRUCTIONS TO VISION.

      THIS PRODUCT IS RELEASED AS TWO VERSIONS.  ONE VERSION NEAR
      THE TOP OF THE HOUR CONTAINING PRELIMINARY DATA FROM ALBUQUERQUE
      AND OTHER STATIONS.  A FINAL VERSION WITH ADDITIONAL DATA IS
      ISSUED ABOUT 10 MINUTES AFTER THE HOUR.

NMZ501-503-504-510>518-100000-
NORTHWEST PLATEAU/NORTHCENTRAL MOUNTAINS

CITY           SKY/WX    TMP DP  RH WIND       PRES   REMARKS
FARMINGTON     SUNNY     51  21  30 NW7       30.36S
SANTA FE       SUNNY     57  16  20 W9        30.31F
TAOS           SUNNY     48  18  29 NW8       30.36S
ANGEL FIRE     FAIR      43  13  30 SW7       30.38R

$$
NMZ402-403-502-505>509-100000-
WESTCENTRAL MOUNTAINS/SOUTHWEST MOUNTAINS

CITY           SKY/WX    TMP DP  RH WIND       PRES   REMARKS
GALLUP         SUNNY     57  15  19 VRB5      30.37S
GRANTS         SUNNY     58   7  13 N14       30.37S
SILVER CITY      N/A     63  16  16 S8        30.32F

$$
NMZ407-409-411-412-100000-
SOUTHERN DESERTS

CITY           SKY/WX    TMP DP  RH WIND       PRES   REMARKS
DEMING         SUNNY     66  17  15 VRB3      30.28F
ALAMOGORDO     SUNNY     63  18  17 CALM      30.29S
T OR C         SUNNY     63  18  17 VRB3      30.27F

$$
NMZ519>523-100000-
CENTRAL VALLEYS/CENTRAL HIGHLANDS

CITY           SKY/WX    TMP DP  RH WIND       PRES   REMARKS
ALBUQUERQUE    SUNNY     61  20  20 NE3       30.31F
DOUBLE EAGLE   SUNNY     59  19  21 CALM      30.33S
MORIARTY ARPT  FAIR      60  11  15 NW8       30.33S
CLINES CORNERS SUNNY     56  17  21 W8        30.32F
BELEN          FAIR      61  18  19 CALM      30.31S
SOCORRO        NOT AVBL

$$
NMZ524>526-539-540-100000-
SOUTHCENTRAL MOUNTAINS

CITY           SKY/WX    TMP DP  RH WIND       PRES   REMARKS
RUIDOSO        SUNNY     57   9  14 N8        30.36R

$$
NMZ527>531-100000-
NORTHEAST HIGHLANDS/NORTHEAST PLAINS

CITY           SKY/WX    TMP DP  RH WIND       PRES   REMARKS
LAS VEGAS      SUNNY     53  19  26 S14       30.32S
RATON          SUNNY     57  10  15 E15       30.30R
CLAYTON        SUNNY     61  15  16 N14G22    30.29R

$$
NMZ532>537-100000-
EASTCENTRAL PLAINS

CITY           SKY/WX    TMP DP  RH WIND       PRES   REMARKS
TUCUMCARI      SUNNY     63  12  13 CALM      30.27R
CANNON AFB     NOT AVBL
CLOVIS AIRPORT SUNNY     61  18  18 SW5       30.31S

$$
NMZ028-029-538-100000-
SOUTHEAST PLAINS

CITY           SKY/WX    TMP DP  RH WIND       PRES   REMARKS
ROSWELL        SUNNY     62  18  18 S6        30.28S
ARTESIA        SUNNY     63  21  20 SE6       30.28S
CARLSBAD       SUNNY     63  20  19 SE9       30.26F
HOBBS          SUNNY     63  16  16 S7        30.30S


$$



USA.gov is the U.S. government's official web portal to all federal, state and local government web resources and services.